Flag for U.S.A. Weather past 2 weeks in Vevay, Indiana, U.S.A.

Now
81 °F

Sunny.


Feels Like: 82 °F
Forecast: 66 / 88 °F
Wind: 12 mph from Northwest

Location: Cincinnati / Northern Kentucky International Airport

Current Time: Aug 4, 2015 at 6:32:49 PM

Latest Report: Aug 4, 2015 at 5:52 PM


Visibility: 10 mi

Pressure: 29.96 "Hg

Humidity: 51%

Dew point: 61 °F

Location of VevayLocation

Historic Weather in Vevay — Graph

°F

Vevay temperature yesterday

Maximum temperature yesterday: 86 °F (at 4:52 PM)
Minimum temperature yesterday: 63 °F (at 6:52 AM)
Average temperature yesterday: 73 °F

Past Weeks' High & Low Weather Summary

 TemperatureHumidityPressure
High91 °F (Jul 28, 2:52 PM)100% (Aug 3, 6:52 AM)30.06 "Hg (Aug 3, 6:52 AM)
Low61 °F (Jul 25, 6:52 AM)29% (Jul 30, 3:52 PM)29.72 "Hg (Jul 21, 2:52 AM)
Average76 °F69%29.94 "Hg
* Reported Jul 20 4:52 PM — Aug 4 4:52 PM, Vevay, Weather by CustomWeather, © 2015

Note: Actual official high and low records may vary slightly from our data, if they occured in-between our weather recording intervals... More about our weather records

Advertising

Vevay weather history for previous 24 hours

 ConditionsComfort  
Time TempWeatherWind HumidityBarometerVisibility
4:52 PM
Tue, Aug 4
80 °FPartly sunny.12 mph58%29.96 "Hg10 mi
3:52 PM81 °FPartly sunny.9 mph49%29.96 "Hg10 mi
2:52 PM84 °FPartly sunny.12 mph43%29.96 "Hg10 mi
1:52 PM83 °FPartly sunny.9 mph41%29.96 "Hg10 mi
12:52 PM83 °FPartly sunny.12 mph46%29.96 "Hg10 mi
11:52 AM80 °FPartly sunny.10 mph58%29.97 "Hg10 mi
10:52 AM79 °FPartly sunny.9 mph62%29.97 "Hg10 mi
9:52 AM75 °FScattered clouds.No wind76%29.97 "Hg10 mi
8:52 AM73 °FPassing clouds.No wind81%29.96 "Hg8 mi
7:52 AM69 °FScattered clouds.3 mph90%29.95 "Hg7 mi
6:52 AM65 °FFog.No wind94%29.95 "Hg6 mi
5:52 AM69 °FClear.No wind87%29.92 "Hg8 mi
4:52 AM67 °FFog.No wind93%29.91 "Hg6 mi
3:52 AM69 °FPassing clouds.5 mph90%29.91 "Hg8 mi
2:52 AM69 °FPartly cloudy.No wind90%29.90 "Hg9 mi
1:52 AM70 °FPassing clouds.No wind84%29.90 "Hg10 mi
12:52 AM72 °FPartly cloudy.3 mph78%29.90 "Hg10 mi
11:52 PM
Mon, Aug 3
70 °FMostly cloudy.3 mph87%29.90 "Hg10 mi
10:52 PM69 °FPassing clouds.5 mph90%29.88 "Hg10 mi
9:52 PM69 °FPartly cloudy.3 mph90%29.86 "Hg10 mi
8:52 PM71 °FBroken clouds.7 mph84%29.85 "Hg10 mi
7:52 PM73 °FBroken clouds.5 mph79%29.84 "Hg10 mi
7:01 PM72 °FCloudy.3 mph78%29.88 "Hg10 mi
6:52 PM73 °FThunderstorms. Partly sunny.18 mph74%29.85 "Hg10 mi
Weather by CustomWeather, © 2015

See weather overviewHow to use our weather pages